Погода в Велени

Польша     52°53′10″N   16°10′12″E
темп.,
°C
ветер,
м/с
пор.,
м/с
влажн.,
%
обл.,
%
осадки,
мм/ч
давл.,
гПа
погр.,
м
24 июня, чт
чт2423:00+16ссз376797 0.0 1020167
02:00+17с3663100 0.0 1019219
05:00+16ссв3768100 0.0 1018213
08:00+16ссв2590100 0.8 1018206
11:00+16с2396100 4.3 1018194
14:00+16ссз3595100 5.3 1017303
17:00+17ссз348887 0.0 1017449
20:00+17ссз358696 0.1 1016515
25 июня, пт
пт2523:00+15ссз37929 0.0 1016327
02:00+12ссз249811 0.0 1016101
05:00+12сз249869 0.0 1016101
08:00+17сз46756 0.0 1016595
11:00+20ссз2361100 0.1 10171362
14:00+21з335999 0.2 10161141
17:00+21зсз346496 0.7 1016954
20:00+19зсз237880 1.4 101675
26 июня, сб
сб2623:00+15ссв238841 0.0 101753
02:00+14с2394100 0.0 101858
05:00+13с2291100 0.0 101937
08:00+17сз2368100 0.0 1019363
11:00+22сз34438 0.0 10191588
14:00+25сз3435100 0.0 10182110
17:00+24зсз333487 0.0 10182028
20:00+21ссз245211 0.0 1018111
27 июня, вс
вс2723:00+16ссв25726 0.0 101988
02:00+14св22811 0.0 101928
05:00+13ссв11840 0.0 101910
08:00+19с116048 0.0 1019306
11:00+24зсз124377 0.0 10191389
14:00+27зюз123770 0.0 10182345
17:00+24всв2354100 0.0 101881
20:00+22вюв246548 0.0 1017113
28 июня, пн
пн2823:00+19юв116897 0.0 101811
02:00+19юв116868 0.0 101811
05:00+17всв227995 0.0 101821
08:00+21вюв226471 0.0 1019272
11:00+26юв23469 0.0 10181289
14:00+28юв323843 0.0 10172353
17:00+28вюв434096 0.0 10161686
20:00+24юв375966 0.0 1015197